アトラス彗星

C/2024 G3 ( ATLAS )

English version
Home page
Updated on February 10, 2025

---------------------------------------------------------------------

・ プロフィール

発見日 2024年4月5日
発見光度 19.2等
発見者 Asteroid Terrestrial-Impact Last Alert System (ATLAS) search program

・ 写真集

・ 軌道要素

Epoch 2024 Oct. 17.0 TT = JDT 2460600.5                                         
T 2025 Jan. 13.42771 TT                                 Pike                    
q   0.0935311            (2000.0)            P               Q                  
z  -0.0001271      Peri.  108.12320     -0.04071401     +0.81537095             
 +/-0.0000029      Node   220.33654     +0.14761042     +0.57655103             
e   1.0000119      Incl.  116.84785     +0.98820723     -0.05252736             
From 318 observations 2024 Apr. 5-Dec. 28, mean residual 0".7.                  

・ 星図

・ 光度変化

        m1 = 9.0 + 5 logΔ + 10.0 log r  [    ,-110]  (              〜2024年 9月25日)
        m1 = 7.0 + 5 logΔ + 10.0 log r  [-110,    ]  (2024年 9月25日〜              )

---------------------------------------------------------------------

軌道要素はM.P.E.C. 2025-A40に掲載されたものです。
星図はステラナビゲータ Ver.11 (アストロアーツ) で作成したものです。
光度グラフはComet for Windowsで作成したものです。

---------------------------------------------------------------------

Copyright(C) Seiichi Yoshida (comet@aerith.net). All rights reserved.